INTELSAT 14 (IS-14)

Last updated on Tue Sep 15 2026 00:03:08 GMT+0000 (Coordinated Universal Time)

1 36097U 09064A 26257.64118914 -.00000281 00000+0 00000+0 0 9990 2 36097 0.1402 84.6088 0002378 85.7661 9.0786 1.00271594 61502
UTC large
Height (km)
Speed (km/s)
/
Latitude / Longitude
Inclination (degrees)
Orbital Period (minutes)
Azimuth
Elevation
Range (km)
Doppler Factor

Next 0 passes for location: London (51.5072 / 0.1276)

No passes found over London.
INTELSAT 14 (IS-14)